Time,TemperatureF,DewpointF,PressureIn,WindDirection,WindDirectionDegrees,WindSpeedMPH,WindSpeedGustMPH,Humidity,HourlyPrecipIn,Conditions,Clouds,dailyrainin,SoftwareType,DateUTC
2017-04-27 00:00:00,73.9,71.8,29.78,SE,138,5.0,11.0,93,0.00,,,0.00,VWS V12.08,2017-04-27 05:00:00,
2017-04-27 00:01:00,73.9,71.8,29.77,SSE,155,6.0,6.0,93,0.00,,,0.00,VWS V12.08,2017-04-27 05:01:00,
2017-04-27 00:02:00,73.9,71.8,29.78,SSE,155,3.0,6.0,93,0.00,,,0.00,VWS V12.08,2017-04-27 05:02:00,
2017-04-27 00:03:00,73.9,71.8,29.78,South,177,4.0,10.0,93,0.00,,,0.00,VWS V12.08,2017-04-27 05:03:00,
2017-04-27 00:04:00,73.9,71.8,29.78,South,169,9.0,10.0,93,0.00,,,0.00,VWS V12.08,2017-04-27 05:04:00,
2017-04-27 00:05:00,73.9,71.8,29.78,ESE,110,7.0,14.0,93,0.00,,,0.00,VWS V12.08,2017-04-27 05:05:00,
2017-04-27 00:06:00,73.9,71.8,29.78,SSE,147,5.0,14.0,93,0.00,,,0.00,VWS V12.08,2017-04-27 05:06:00,
2017-04-27 00:07:00,73.9,71.8,29.78,South,169,7.0,14.0,93,0.00,,,0.00,VWS V12.08,2017-04-27 05:07:00,
2017-04-27 00:08:00,73.9,71.8,29.77,South,175,9.0,14.0,93,0.00,,,0.00,VWS V12.08,2017-04-27 05:08:00,
2017-04-27 00:09:00,73.9,71.8,29.77,SSE,159,5.0,14.0,93,0.00,,,0.00,VWS V12.08,2017-04-27 05:09:00,
2017-04-27 00:10:00,73.9,71.8,29.77,SSE,155,3.0,14.0,93,0.00,,,0.00,VWS V12.08,2017-04-27 05:10:00,
2017-04-27 00:11:00,73.9,71.8,29.77,SSE,150,3.0,14.0,93,0.00,,,0.00,VWS V12.08,2017-04-27 05:11:00,
2017-04-27 00:12:00,73.9,71.8,29.77,ESE,110,4.0,14.0,93,0.00,,,0.00,VWS V12.08,2017-04-27 05:12:00,
2017-04-27 00:13:00,73.9,71.8,29.77,SE,138,4.0,14.0,93,0.00,,,0.00,VWS V12.08,2017-04-27 05:13:00,
2017-04-27 00:14:00,73.9,71.8,29.77,SE,136,5.0,14.0,93,0.00,,,0.00,VWS V12.08,2017-04-27 05:14:00,
2017-04-27 00:15:00,73.9,71.8,29.78,South,172,6.0,14.0,93,0.00,,,0.00,VWS V12.08,2017-04-27 05:15:00,
2017-04-27 00:16:00,73.9,71.8,29.78,SE,134,7.0,14.0,93,0.00,,,0.00,VWS V12.08,2017-04-27 05:16:00,
2017-04-27 00:17:00,73.9,71.8,29.77,SSE,158,3.0,14.0,93,0.00,,,0.00,VWS V12.08,2017-04-27 05:17:00,
2017-04-27 00:18:00,74.0,71.8,29.78,South,178,4.0,14.0,93,0.00,,,0.00,VWS V12.08,2017-04-27 05:18:00,
2017-04-27 00:19:00,74.0,71.8,29.77,SSE,165,5.0,14.0,93,0.00,,,0.00,VWS V12.08,2017-04-27 05:19:00,
2017-04-27 00:20:00,74.0,71.8,29.77,South,171,7.0,14.0,93,0.00,,,0.00,VWS V12.08,2017-04-27 05:20:00,
2017-04-27 00:21:00,74.0,71.8,29.78,SE,142,4.0,14.0,93,0.00,,,0.00,VWS V12.08,2017-04-27 05:21:00,
2017-04-27 00:22:00,74.0,71.8,29.78,SE,129,4.0,14.0,93,0.00,,,0.00,VWS V12.08,2017-04-27 05:22:00,
2017-04-27 00:23:00,74.0,71.8,29.77,SSE,150,5.0,14.0,93,0.00,,,0.00,VWS V12.08,2017-04-27 05:23:00,
2017-04-27 00:24:00,74.0,71.8,29.77,SE,146,5.0,14.0,93,0.00,,,0.00,VWS V12.08,2017-04-27 05:24:00,
2017-04-27 00:25:00,74.0,72.2,29.77,South,175,8.0,14.0,94,0.00,,,0.00,VWS V12.08,2017-04-27 05:25:00,
2017-04-27 00:26:00,74.0,72.2,29.77,SSE,160,7.0,14.0,94,0.00,,,0.00,VWS V12.08,2017-04-27 05:26:00,
2017-04-27 00:27:00,74.0,71.8,29.77,SSE,157,7.0,14.0,93,0.00,,,0.00,VWS V12.08,2017-04-27 05:27:00,
2017-04-27 00:28:00,74.0,71.8,29.77,SSE,165,5.0,14.0,93,0.00,,,0.00,VWS V12.08,2017-04-27 05:28:00,
2017-04-27 00:29:00,74.0,72.2,29.77,South,180,5.0,14.0,94,0.00,,,0.00,VWS V12.08,2017-04-27 05:29:00,
2017-04-27 00:30:00,74.1,71.9,29.77,SE,138,4.0,14.0,93,0.00,,,0.00,VWS V12.08,2017-04-27 05:30:00,
2017-04-27 00:31:00,74.1,72.3,29.77,SSE,162,6.0,8.0,94,0.00,,,0.00,VWS V12.08,2017-04-27 05:31:00,
2017-04-27 00:32:00,74.1,72.3,29.77,SE,125,4.0,9.0,94,0.00,,,0.00,VWS V12.08,2017-04-27 05:32:00,
2017-04-27 00:33:00,74.1,72.3,29.77,SE,142,6.0,9.0,94,0.00,,,0.00,VWS V12.08,2017-04-27 05:33:00,
2017-04-27 00:34:00,74.1,72.3,29.77,SE,142,5.0,9.0,94,0.00,,,0.00,VWS V12.08,2017-04-27 05:34:00,
2017-04-27 00:35:00,74.0,72.2,29.77,SSE,147,6.0,9.0,94,0.00,,,0.00,VWS V12.08,2017-04-27 05:35:00,
2017-04-27 00:36:00,74.0,72.2,29.77,SSE,156,8.0,11.0,94,0.00,,,0.00,VWS V12.08,2017-04-27 05:36:00,
2017-04-27 00:37:00,74.0,72.2,29.77,SSE,155,7.0,11.0,94,0.00,,,0.00,VWS V12.08,2017-04-27 05:37:00,
2017-04-27 00:38:00,74.1,72.3,29.77,SE,144,5.0,11.0,94,0.00,,,0.00,VWS V12.08,2017-04-27 05:38:00,
2017-04-27 00:39:00,74.1,72.3,29.77,SE,129,5.0,11.0,94,0.00,,,0.00,VWS V12.08,2017-04-27 05:39:00,
2017-04-27 00:40:00,74.0,72.2,29.77,SE,137,5.0,11.0,94,0.00,,,0.00,VWS V12.08,2017-04-27 05:40:00,
2017-04-27 00:41:00,74.1,72.3,29.77,ESE,117,9.0,11.0,94,0.00,,,0.00,VWS V12.08,2017-04-27 05:41:00,
2017-04-27 00:42:00,74.1,72.3,29.77,South,175,8.0,11.0,94,0.00,,,0.00,VWS V12.08,2017-04-27 05:42:00,
2017-04-27 00:43:00,74.1,72.3,29.77,SE,128,8.0,11.0,94,0.00,,,0.00,VWS V12.08,2017-04-27 05:43:00,
2017-04-27 00:44:00,74.1,72.3,29.77,South,188,7.0,11.0,94,0.00,,,0.00,VWS V12.08,2017-04-27 05:44:00,
2017-04-27 00:45:00,74.1,72.3,29.77,SSE,150,5.0,11.0,94,0.00,,,0.00,VWS V12.08,2017-04-27 05:45:00,
2017-04-27 00:46:00,74.1,72.3,29.76,SE,140,5.0,11.0,94,0.00,,,0.00,VWS V12.08,2017-04-27 05:46:00,
2017-04-27 00:47:00,74.1,72.3,29.77,East,88,4.0,11.0,94,0.00,,,0.00,VWS V12.08,2017-04-27 05:47:00,
2017-04-27 00:48:00,74.1,72.3,29.76,SE,144,4.0,11.0,94,0.00,,,0.00,VWS V12.08,2017-04-27 05:48:00,
2017-04-27 00:49:00,74.1,72.3,29.76,SSE,153,5.0,11.0,94,0.00,,,0.00,VWS V12.08,2017-04-27 05:49:00,
2017-04-27 00:50:00,74.1,72.3,29.76,SSE,164,6.0,11.0,94,0.00,,,0.00,VWS V12.08,2017-04-27 05:50:00,
2017-04-27 00:51:00,74.1,72.3,29.76,SSE,151,5.0,11.0,94,0.00,,,0.00,VWS V12.08,2017-04-27 05:51:00,
2017-04-27 00:52:00,74.1,72.3,29.76,SSE,155,3.0,11.0,94,0.00,,,0.00,VWS V12.08,2017-04-27 05:52:00,
2017-04-27 00:53:00,74.1,72.3,29.76,SSW,196,7.0,11.0,94,0.00,,,0.00,VWS V12.08,2017-04-27 05:53:00,
2017-04-27 00:54:00,74.1,72.3,29.76,SE,146,4.0,11.0,94,0.00,,,0.00,VWS V12.08,2017-04-27 05:54:00,
2017-04-27 00:55:00,74.1,72.3,29.76,SE,142,4.0,11.0,94,0.00,,,0.00,VWS V12.08,2017-04-27 05:55:00,
2017-04-27 00:56:00,74.1,72.3,29.76,SSE,167,4.0,11.0,94,0.00,,,0.00,VWS V12.08,2017-04-27 05:56:00,
2017-04-27 00:57:00,74.1,72.3,29.76,SE,143,5.0,11.0,94,0.00,,,0.00,VWS V12.08,2017-04-27 05:57:00,
2017-04-27 00:58:00,74.1,72.3,29.76,ESE,110,4.0,11.0,94,0.00,,,0.00,VWS V12.08,2017-04-27 05:58:00,
2017-04-27 00:59:00,74.2,72.4,29.76,SE,134,8.0,11.0,94,0.00,,,0.00,VWS V12.08,2017-04-27 05:59:00,
2017-04-27 01:00:00,74.2,72.4,29.76,SSE,151,5.0,11.0,94,0.00,,,0.00,VWS V12.08,2017-04-27 06:00:00,
2017-04-27 01:01:00,74.2,72.4,29.76,SE,140,7.0,10.0,94,0.00,,,0.00,VWS V12.08,2017-04-27 06:01:00,
2017-04-27 01:02:00,74.2,72.4,29.76,South,190,6.0,10.0,94,0.00,,,0.00,VWS V12.08,2017-04-27 06:02:00,
2017-04-27 01:03:00,74.2,72.4,29.76,SSE,157,6.0,10.0,94,0.00,,,0.00,VWS V12.08,2017-04-27 06:03:00,
2017-04-27 01:04:00,74.2,72.4,29.76,SE,133,10.0,10.0,94,0.00,,,0.00,VWS V12.08,2017-04-27 06:04:00,
2017-04-27 01:05:00,74.3,72.5,29.76,SSE,157,5.0,10.0,94,0.00,,,0.00,VWS V12.08,2017-04-27 06:05:00,
2017-04-27 01:06:00,74.2,72.4,29.76,SE,134,8.0,10.0,94,0.00,,,0.00,VWS V12.08,2017-04-27 06:06:00,
2017-04-27 01:07:00,74.2,72.4,29.76,SSE,152,7.0,10.0,94,0.00,,,0.00,VWS V12.08,2017-04-27 06:07:00,
2017-04-27 01:08:00,74.2,72.4,29.76,SSE,151,3.0,10.0,94,0.00,,,0.00,VWS V12.08,2017-04-27 06:08:00,
2017-04-27 01:09:00,74.2,72.4,29.75,SE,141,4.0,10.0,94,0.00,,,0.00,VWS V12.08,2017-04-27 06:09:00,
2017-04-27 01:10:00,74.2,72.4,29.75,SSE,159,6.0,10.0,94,0.00,,,0.00,VWS V12.08,2017-04-27 06:10:00,
2017-04-27 01:11:00,74.2,72.4,29.75,SSE,157,5.0,10.0,94,0.00,,,0.00,VWS V12.08,2017-04-27 06:11:00,
2017-04-27 01:12:00,74.2,72.4,29.75,ESE,118,6.0,10.0,94,0.00,,,0.00,VWS V12.08,2017-04-27 06:12:00,
2017-04-27 01:13:00,74.2,72.4,29.75,SE,133,5.0,10.0,94,0.00,,,0.00,VWS V12.08,2017-04-27 06:13:00,
2017-04-27 01:14:00,74.2,72.4,29.75,SSE,154,3.0,10.0,94,0.00,,,0.00,VWS V12.08,2017-04-27 06:14:00,
2017-04-27 01:15:00,74.2,72.4,29.75,SSE,149,8.0,10.0,94,0.00,,,0.00,VWS V12.08,2017-04-27 06:15:00,
2017-04-27 01:16:00,74.2,72.4,29.75,SE,146,5.0,10.0,94,0.00,,,0.00,VWS V12.08,2017-04-27 06:16:00,
2017-04-27 01:17:00,74.3,72.5,29.75,SSE,161,4.0,10.0,94,0.00,,,0.00,VWS V12.08,2017-04-27 06:17:00,
2017-04-27 01:18:00,74.2,72.4,29.75,SE,140,4.0,10.0,94,0.00,,,0.00,VWS V12.08,2017-04-27 06:18:00,
2017-04-27 01:19:00,74.3,72.5,29.75,SSE,157,6.0,10.0,94,0.00,,,0.00,VWS V12.08,2017-04-27 06:19:00,
2017-04-27 01:20:00,74.2,72.4,29.75,SSE,155,7.0,10.0,94,0.00,,,0.00,VWS V12.08,2017-04-27 06:20:00,
2017-04-27 01:21:00,74.2,72.4,29.75,SE,134,5.0,10.0,94,0.00,,,0.00,VWS V12.08,2017-04-27 06:21:00,
2017-04-27 01:22:00,74.2,72.4,29.75,South,169,9.0,10.0,94,0.00,,,0.00,VWS V12.08,2017-04-27 06:22:00,
2017-04-27 01:23:00,74.2,72.4,29.75,SE,138,7.0,11.0,94,0.00,,,0.00,VWS V12.08,2017-04-27 06:23:00,
2017-04-27 01:24:00,74.2,72.4,29.75,SE,135,5.0,11.0,94,0.00,,,0.00,VWS V12.08,2017-04-27 06:24:00,
2017-04-27 01:25:00,74.2,72.4,29.75,SSE,165,4.0,11.0,94,0.00,,,0.00,VWS V12.08,2017-04-27 06:25:00,
2017-04-27 01:26:00,74.2,72.4,29.75,SE,142,4.0,11.0,94,0.00,,,0.00,VWS V12.08,2017-04-27 06:26:00,
2017-04-27 01:27:00,74.3,72.5,29.75,SE,144,6.0,11.0,94,0.00,,,0.00,VWS V12.08,2017-04-27 06:27:00,
2017-04-27 01:28:00,74.2,72.4,29.75,SE,129,8.0,11.0,94,0.00,,,0.00,VWS V12.08,2017-04-27 06:28:00,
2017-04-27 01:29:00,74.2,72.4,29.75,SE,143,8.0,11.0,94,0.00,,,0.00,VWS V12.08,2017-04-27 06:29:00,
2017-04-27 01:30:00,74.2,72.4,29.75,SE,143,6.0,11.0,94,0.00,,,0.00,VWS V12.08,2017-04-27 06:30:00,
2017-04-27 01:31:00,74.2,72.4,29.75,SSE,150,5.0,9.0,94,0.00,,,0.00,VWS V12.08,2017-04-27 06:31:00,
2017-04-27 01:32:00,74.2,72.4,29.75,SSE,160,7.0,9.0,94,0.00,,,0.00,VWS V12.08,2017-04-27 06:32:00,
2017-04-27 01:33:00,74.3,72.5,29.75,SSE,167,5.0,9.0,94,0.00,,,0.00,VWS V12.08,2017-04-27 06:33:00,
2017-04-27 01:34:00,74.2,72.4,29.74,South,169,10.0,10.0,94,0.00,,,0.00,VWS V12.08,2017-04-27 06:34:00,
2017-04-27 01:35:00,74.2,72.4,29.74,ESE,122,11.0,12.0,94,0.00,,,0.00,VWS V12.08,2017-04-27 06:35:00,
2017-04-27 01:36:00,74.3,72.5,29.74,SE,144,5.0,12.0,94,0.00,,,0.00,VWS V12.08,2017-04-27 06:36:00,
2017-04-27 01:37:00,74.3,72.5,29.74,SE,144,5.0,12.0,94,0.00,,,0.00,VWS V12.08,2017-04-27 06:37:00,
2017-04-27 01:38:00,74.2,72.4,29.74,SE,141,5.0,12.0,94,0.00,,,0.00,VWS V12.08,2017-04-27 06:38:00,
2017-04-27 01:39:00,74.2,72.4,29.74,SSE,161,11.0,12.0,94,0.00,,,0.00,VWS V12.08,2017-04-27 06:39:00,
2017-04-27 01:40:00,74.2,72.4,29.74,SSE,163,7.0,12.0,94,0.00,,,0.00,VWS V12.08,2017-04-27 06:40:00,
2017-04-27 01:41:00,74.3,72.5,29.74,SE,132,8.0,12.0,94,0.00,,,0.00,VWS V12.08,2017-04-27 06:41:00,
2017-04-27 01:42:00,74.3,72.5,29.74,SSE,160,7.0,12.0,94,0.00,,,0.00,VWS V12.08,2017-04-27 06:42:00,
2017-04-27 01:43:00,74.3,72.5,29.74,SSE,163,8.0,12.0,94,0.00,,,0.00,VWS V12.08,2017-04-27 06:43:00,
2017-04-27 01:44:00,74.3,72.5,29.74,SE,133,5.0,12.0,94,0.00,,,0.00,VWS V12.08,2017-04-27 06:44:00,
2017-04-27 01:45:00,74.3,72.5,29.74,SSE,147,8.0,12.0,94,0.00,,,0.00,VWS V12.08,2017-04-27 06:45:00,
2017-04-27 01:46:00,74.3,72.5,29.74,SE,146,6.0,12.0,94,0.00,,,0.00,VWS V12.08,2017-04-27 06:46:00,
2017-04-27 01:47:00,74.4,72.6,29.74,SE,134,5.0,12.0,94,0.00,,,0.00,VWS V12.08,2017-04-27 06:47:00,
2017-04-27 01:48:00,74.3,72.5,29.74,SSE,159,7.0,12.0,94,0.00,,,0.00,VWS V12.08,2017-04-27 06:48:00,
2017-04-27 01:49:00,74.4,72.6,29.74,SSE,148,4.0,12.0,94,0.00,,,0.00,VWS V12.08,2017-04-27 06:49:00,
2017-04-27 01:50:00,74.4,72.6,29.74,SE,144,6.0,12.0,94,0.00,,,0.00,VWS V12.08,2017-04-27 06:50:00,
2017-04-27 01:51:00,74.3,72.5,29.74,SSE,149,10.0,12.0,94,0.00,,,0.00,VWS V12.08,2017-04-27 06:51:00,
2017-04-27 01:52:00,74.4,72.6,29.74,SE,138,12.0,12.0,94,0.00,,,0.00,VWS V12.08,2017-04-27 06:52:00,
2017-04-27 01:53:00,74.4,72.6,29.74,SSE,149,6.0,12.0,94,0.00,,,0.00,VWS V12.08,2017-04-27 06:53:00,
2017-04-27 01:54:00,74.4,72.6,29.74,SSE,152,8.0,12.0,94,0.00,,,0.00,VWS V12.08,2017-04-27 06:54:00,
2017-04-27 01:55:00,74.4,72.6,29.74,SE,139,7.0,12.0,94,0.00,,,0.00,VWS V12.08,2017-04-27 06:55:00,
2017-04-27 01:56:00,74.4,72.6,29.74,SE,126,8.0,12.0,94,0.00,,,0.00,VWS V12.08,2017-04-27 06:56:00,
2017-04-27 01:57:00,74.4,72.6,29.74,SE,140,7.0,12.0,94,0.00,,,0.00,VWS V12.08,2017-04-27 06:57:00,
2017-04-27 01:58:00,74.4,72.6,29.74,SE,144,8.0,12.0,94,0.00,,,0.00,VWS V12.08,2017-04-27 06:58:00,
2017-04-27 01:59:00,74.4,72.6,29.74,South,184,7.0,12.0,94,0.00,,,0.00,VWS V12.08,2017-04-27 06:59:00,
2017-04-27 02:00:00,74.3,72.5,29.73,South,178,6.0,15.0,94,0.00,,,0.00,VWS V12.08,2017-04-27 07:00:00,
2017-04-27 02:01:00,74.4,72.6,29.73,SE,141,8.0,11.0,94,0.00,,,0.00,VWS V12.08,2017-04-27 07:01:00,
2017-04-27 02:02:00,74.3,72.5,29.73,SE,146,8.0,12.0,94,0.00,,,0.00,VWS V12.08,2017-04-27 07:02:00,
2017-04-27 02:03:00,74.3,72.5,29.73,South,182,7.0,12.0,94,0.00,,,0.00,VWS V12.08,2017-04-27 07:03:00,
2017-04-27 02:04:00,74.3,72.5,29.74,SE,134,5.0,12.0,94,0.00,,,0.00,VWS V12.08,2017-04-27 07:04:00,
2017-04-27 02:05:00,74.2,72.4,29.73,SE,140,5.0,12.0,94,0.00,,,0.00,VWS V12.08,2017-04-27 07:05:00,
2017-04-27 02:06:00,74.2,72.4,29.73,SSE,163,6.0,12.0,94,0.00,,,0.00,VWS V12.08,2017-04-27 07:06:00,
2017-04-27 02:07:00,74.2,72.4,29.73,South,181,5.0,12.0,94,0.00,,,0.00,VWS V12.08,2017-04-27 07:07:00,
2017-04-27 02:08:00,74.2,72.4,29.74,SE,141,7.0,12.0,94,0.00,,,0.00,VWS V12.08,2017-04-27 07:08:00,
2017-04-27 02:09:00,74.2,72.4,29.73,SSE,151,4.0,12.0,94,0.00,,,0.00,VWS V12.08,2017-04-27 07:09:00,
2017-04-27 02:10:00,74.2,72.4,29.73,SSE,165,7.0,12.0,94,0.00,,,0.00,VWS V12.08,2017-04-27 07:10:00,
2017-04-27 02:11:00,74.2,72.4,29.73,SE,142,6.0,12.0,94,0.00,,,0.00,VWS V12.08,2017-04-27 07:11:00,
2017-04-27 02:12:00,74.1,72.3,29.73,SE,130,5.0,12.0,94,0.00,,,0.00,VWS V12.08,2017-04-27 07:12:00,
2017-04-27 02:13:00,74.1,72.3,29.73,SE,129,5.0,12.0,94,0.00,,,0.00,VWS V12.08,2017-04-27 07:13:00,
2017-04-27 02:14:00,74.2,72.4,29.73,SSE,154,6.0,12.0,94,0.00,,,0.00,VWS V12.08,2017-04-27 07:14:00,
2017-04-27 02:15:00,74.1,72.3,29.73,SSE,168,10.0,12.0,94,0.00,,,0.00,VWS V12.08,2017-04-27 07:15:00,
2017-04-27 02:16:00,74.1,72.3,29.73,SSE,147,11.0,12.0,94,0.00,,,0.00,VWS V12.08,2017-04-27 07:16:00,
2017-04-27 02:17:00,74.1,72.3,29.73,SE,140,8.0,12.0,94,0.00,,,0.00,VWS V12.08,2017-04-27 07:17:00,
2017-04-27 02:18:00,74.2,72.4,29.73,South,171,7.0,12.0,94,0.00,,,0.00,VWS V12.08,2017-04-27 07:18:00,
2017-04-27 02:19:00,74.1,72.3,29.73,SE,142,6.0,12.0,94,0.00,,,0.00,VWS V12.08,2017-04-27 07:19:00,
2017-04-27 02:20:00,74.1,72.3,29.73,South,190,7.0,12.0,94,0.00,,,0.00,VWS V12.08,2017-04-27 07:20:00,
2017-04-27 02:21:00,74.1,72.3,29.73,SE,140,7.0,12.0,94,0.00,,,0.00,VWS V12.08,2017-04-27 07:21:00,
2017-04-27 02:22:00,74.1,72.3,29.73,SE,144,8.0,12.0,94,0.00,,,0.00,VWS V12.08,2017-04-27 07:22:00,
2017-04-27 02:23:00,74.2,72.4,29.73,SSE,155,6.0,12.0,94,0.00,,,0.00,VWS V12.08,2017-04-27 07:23:00,
2017-04-27 02:24:00,74.1,72.3,29.73,SE,140,5.0,12.0,94,0.00,,,0.00,VWS V12.08,2017-04-27 07:24:00,
2017-04-27 02:25:00,74.2,72.4,29.73,SE,140,5.0,12.0,94,0.00,,,0.00,VWS V12.08,2017-04-27 07:25:00,
2017-04-27 02:26:00,74.1,72.3,29.73,SE,128,7.0,12.0,94,0.00,,,0.00,VWS V12.08,2017-04-27 07:26:00,
2017-04-27 02:27:00,74.1,72.3,29.73,South,171,4.0,12.0,94,0.00,,,0.00,VWS V12.08,2017-04-27 07:27:00,
2017-04-27 02:28:00,74.2,72.4,29.73,SSE,159,6.0,12.0,94,0.00,,,0.00,VWS V12.08,2017-04-27 07:28:00,
2017-04-27 02:29:00,74.2,72.4,29.73,SSE,148,5.0,12.0,94,0.00,,,0.00,VWS V12.08,2017-04-27 07:29:00,
2017-04-27 02:30:00,74.2,72.4,29.73,South,175,3.0,12.0,94,0.00,,,0.00,VWS V12.08,2017-04-27 07:30:00,
2017-04-27 02:31:00,74.2,72.4,29.73,SSE,149,5.0,9.0,94,0.00,,,0.00,VWS V12.08,2017-04-27 07:31:00,
2017-04-27 02:32:00,74.2,72.4,29.73,SSE,148,9.0,9.0,94,0.00,,,0.00,VWS V12.08,2017-04-27 07:32:00,
2017-04-27 02:33:00,74.2,72.4,29.73,SE,136,5.0,11.0,94,0.00,,,0.00,VWS V12.08,2017-04-27 07:33:00,
2017-04-27 02:34:00,74.2,72.4,29.73,SSE,155,4.0,11.0,94,0.00,,,0.00,VWS V12.08,2017-04-27 07:34:00,
2017-04-27 02:35:00,74.2,72.4,29.73,SSE,151,5.0,11.0,94,0.00,,,0.00,VWS V12.08,2017-04-27 07:35:00,
2017-04-27 02:36:00,74.3,72.5,29.73,SSE,153,4.0,11.0,94,0.00,,,0.00,VWS V12.08,2017-04-27 07:36:00,
2017-04-27 02:37:00,74.2,72.4,29.73,SE,145,6.0,11.0,94,0.00,,,0.00,VWS V12.08,2017-04-27 07:37:00,
2017-04-27 02:38:00,74.2,72.4,29.73,SSE,165,4.0,11.0,94,0.00,,,0.00,VWS V12.08,2017-04-27 07:38:00,
2017-04-27 02:39:00,74.2,72.4,29.73,SE,146,6.0,11.0,94,0.00,,,0.00,VWS V12.08,2017-04-27 07:39:00,
2017-04-27 02:40:00,74.2,72.4,29.73,SE,138,7.0,11.0,94,0.00,,,0.00,VWS V12.08,2017-04-27 07:40:00,
2017-04-27 02:41:00,74.3,72.5,29.73,SSE,154,6.0,11.0,94,0.00,,,0.00,VWS V12.08,2017-04-27 07:41:00,
2017-04-27 02:42:00,74.2,72.4,29.73,SE,142,8.0,11.0,94,0.00,,,0.00,VWS V12.08,2017-04-27 07:42:00,
2017-04-27 02:43:00,74.3,72.5,29.73,SE,142,5.0,11.0,94,0.00,,,0.00,VWS V12.08,2017-04-27 07:43:00,
2017-04-27 02:44:00,74.2,72.4,29.73,SSE,165,6.0,11.0,94,0.00,,,0.00,VWS V12.08,2017-04-27 07:44:00,
2017-04-27 02:45:00,74.3,72.5,29.73,SSE,153,5.0,11.0,94,0.00,,,0.00,VWS V12.08,2017-04-27 07:45:00,
2017-04-27 02:46:00,74.2,72.4,29.73,SE,130,5.0,11.0,94,0.00,,,0.00,VWS V12.08,2017-04-27 07:46:00,
2017-04-27 02:47:00,74.3,72.5,29.73,South,179,5.0,11.0,94,0.00,,,0.00,VWS V12.08,2017-04-27 07:47:00,
2017-04-27 02:48:00,74.3,72.5,29.73,SE,130,3.0,11.0,94,0.00,,,0.00,VWS V12.08,2017-04-27 07:48:00,
2017-04-27 02:49:00,74.3,72.5,29.73,SSE,160,4.0,11.0,94,0.00,,,0.00,VWS V12.08,2017-04-27 07:49:00,
2017-04-27 02:50:00,74.2,72.4,29.73,SSE,163,5.0,11.0,94,0.00,,,0.00,VWS V12.08,2017-04-27 07:50:00,
2017-04-27 02:51:00,74.3,72.5,29.73,SE,142,6.0,11.0,94,0.00,,,0.00,VWS V12.08,2017-04-27 07:51:00,
2017-04-27 02:52:00,74.3,72.5,29.73,SSE,160,5.0,11.0,94,0.00,,,0.00,VWS V12.08,2017-04-27 07:52:00,
2017-04-27 02:53:00,74.3,72.5,29.73,SSE,162,6.0,11.0,94,0.00,,,0.00,VWS V12.08,2017-04-27 07:53:00,
2017-04-27 02:54:00,74.3,72.5,29.73,SE,140,5.0,11.0,94,0.00,,,0.00,VWS V12.08,2017-04-27 07:54:00,
2017-04-27 02:55:00,74.3,72.5,29.73,SSE,162,8.0,11.0,94,0.00,,,0.00,VWS V12.08,2017-04-27 07:55:00,
2017-04-27 02:56:00,74.2,72.4,29.73,SE,138,5.0,11.0,94,0.00,,,0.00,VWS V12.08,2017-04-27 07:56:00,
2017-04-27 02:57:00,74.2,72.4,29.73,South,171,4.0,11.0,94,0.00,,,0.00,VWS V12.08,2017-04-27 07:57:00,
2017-04-27 02:58:00,74.2,72.4,29.73,SE,135,4.0,11.0,94,0.00,,,0.00,VWS V12.08,2017-04-27 07:58:00,
2017-04-27 02:59:00,74.3,72.5,29.73,SSE,161,4.0,11.0,94,0.00,,,0.00,VWS V12.08,2017-04-27 07:59:00,
2017-04-27 03:00:00,74.3,72.5,29.73,SE,144,4.0,11.0,94,0.00,,,0.00,VWS V12.08,2017-04-27 08:00:00,
2017-04-27 03:01:00,74.3,72.5,29.73,South,184,3.0,11.0,94,0.00,,,0.00,VWS V12.08,2017-04-27 08:01:00,
2017-04-27 03:02:00,74.3,72.5,29.73,SSE,155,6.0,11.0,94,0.00,,,0.00,VWS V12.08,2017-04-27 08:02:00,
2017-04-27 03:03:00,74.3,72.5,29.73,SE,131,5.0,11.0,94,0.00,,,0.00,VWS V12.08,2017-04-27 08:03:00,
2017-04-27 03:04:00,74.3,72.5,29.73,South,180,4.0,11.0,94,0.00,,,0.00,VWS V12.08,2017-04-27 08:04:00,
2017-04-27 03:05:00,74.3,72.5,29.73,SSE,163,6.0,11.0,94,0.00,,,0.00,VWS V12.08,2017-04-27 08:05:00,
2017-04-27 03:06:00,74.3,72.5,29.73,South,182,3.0,11.0,94,0.00,,,0.00,VWS V12.08,2017-04-27 08:06:00,
2017-04-27 03:07:00,74.3,72.5,29.73,SE,146,5.0,11.0,94,0.00,,,0.00,VWS V12.08,2017-04-27 08:07:00,
2017-04-27 03:08:00,74.3,72.5,29.73,SSE,157,6.0,12.0,94,0.00,,,0.00,VWS V12.08,2017-04-27 08:08:00,
2017-04-27 03:09:00,74.3,72.5,29.73,SSE,155,7.0,12.0,94,0.00,,,0.00,VWS V12.08,2017-04-27 08:09:00,
2017-04-27 03:10:00,74.3,72.5,29.73,SSE,153,3.0,12.0,94,0.00,,,0.00,VWS V12.08,2017-04-27 08:10:00,
2017-04-27 03:11:00,74.3,72.5,29.73,SSW,199,7.0,13.0,94,0.00,,,0.00,VWS V12.08,2017-04-27 08:11:00,
2017-04-27 03:12:00,74.3,72.5,29.73,South,174,6.0,13.0,94,0.00,,,0.00,VWS V12.08,2017-04-27 08:12:00,
2017-04-27 03:13:00,74.3,72.5,29.74,SSE,160,6.0,13.0,94,0.00,,,0.00,VWS V12.08,2017-04-27 08:13:00,
2017-04-27 03:14:00,74.4,72.6,29.73,South,184,6.0,13.0,94,0.00,,,0.00,VWS V12.08,2017-04-27 08:14:00,
2017-04-27 03:15:00,74.4,72.6,29.73,SE,136,7.0,13.0,94,0.00,,,0.00,VWS V12.08,2017-04-27 08:15:00,
2017-04-27 03:16:00,74.3,72.5,29.73,SSW,204,7.0,13.0,94,0.00,,,0.00,VWS V12.08,2017-04-27 08:16:00,
2017-04-27 03:17:00,74.4,72.6,29.73,SSE,152,8.0,13.0,94,0.00,,,0.00,VWS V12.08,2017-04-27 08:17:00,
2017-04-27 03:18:00,74.4,72.6,29.73,SSE,148,8.0,13.0,94,0.00,,,0.00,VWS V12.08,2017-04-27 08:18:00,
2017-04-27 03:19:00,74.4,72.6,29.73,SSE,155,8.0,13.0,94,0.00,,,0.00,VWS V12.08,2017-04-27 08:19:00,
2017-04-27 03:20:00,74.4,72.6,29.73,South,190,5.0,13.0,94,0.00,,,0.00,VWS V12.08,2017-04-27 08:20:00,
2017-04-27 03:21:00,74.4,72.6,29.73,SE,146,5.0,13.0,94,0.00,,,0.00,VWS V12.08,2017-04-27 08:21:00,
2017-04-27 03:22:00,74.4,72.6,29.73,SSE,161,8.0,13.0,94,0.00,,,0.00,VWS V12.08,2017-04-27 08:22:00,
2017-04-27 03:23:00,74.4,72.6,29.73,South,173,10.0,13.0,94,0.00,,,0.00,VWS V12.08,2017-04-27 08:23:00,
2017-04-27 03:24:00,74.4,72.6,29.73,SSW,209,4.0,13.0,94,0.00,,,0.00,VWS V12.08,2017-04-27 08:24:00,
2017-04-27 03:25:00,74.4,72.6,29.73,SW,217,5.0,13.0,94,0.00,,,0.00,VWS V12.08,2017-04-27 08:25:00,
2017-04-27 03:26:00,74.5,72.7,29.73,SSE,153,7.0,13.0,94,0.00,,,0.00,VWS V12.08,2017-04-27 08:26:00,
2017-04-27 03:27:00,74.4,72.6,29.73,SSE,157,6.0,13.0,94,0.00,,,0.00,VWS V12.08,2017-04-27 08:27:00,
2017-04-27 03:28:00,74.4,72.6,29.73,SE,141,9.0,13.0,94,0.00,,,0.00,VWS V12.08,2017-04-27 08:28:00,
2017-04-27 03:29:00,74.4,72.6,29.73,SSE,165,6.0,13.0,94,0.00,,,0.00,VWS V12.08,2017-04-27 08:29:00,
2017-04-27 03:30:00,74.4,72.6,29.73,SSE,167,8.0,13.0,94,0.00,,,0.00,VWS V12.08,2017-04-27 08:30:00,
2017-04-27 03:31:00,74.4,72.6,29.73,SSE,165,7.0,10.0,94,0.00,,,0.00,VWS V12.08,2017-04-27 08:31:00,
2017-04-27 03:32:00,74.4,72.6,29.73,SE,142,3.0,11.0,94,0.00,,,0.00,VWS V12.08,2017-04-27 08:32:00,
2017-04-27 03:33:00,74.4,72.6,29.73,SE,139,5.0,11.0,94,0.00,,,0.00,VWS V12.08,2017-04-27 08:33:00,
2017-04-27 03:34:00,74.4,72.6,29.73,ESE,103,7.0,11.0,94,0.00,,,0.00,VWS V12.08,2017-04-27 08:34:00,
2017-04-27 03:35:00,74.4,72.6,29.73,SE,146,5.0,11.0,94,0.00,,,0.00,VWS V12.08,2017-04-27 08:35:00,
2017-04-27 03:36:00,74.4,72.6,29.73,SSE,148,4.0,11.0,94,0.00,,,0.00,VWS V12.08,2017-04-27 08:36:00,
2017-04-27 03:37:00,74.4,72.6,29.73,SSE,156,6.0,11.0,94,0.00,,,0.00,VWS V12.08,2017-04-27 08:37:00,
2017-04-27 03:38:00,74.4,72.6,29.73,SSE,153,4.0,13.0,94,0.00,,,0.00,VWS V12.08,2017-04-27 08:38:00,
2017-04-27 03:39:00,74.4,72.6,29.73,SSE,148,5.0,13.0,94,0.00,,,0.00,VWS V12.08,2017-04-27 08:39:00,
2017-04-27 03:40:00,74.4,72.6,29.73,South,187,8.0,14.0,94,0.00,,,0.00,VWS V12.08,2017-04-27 08:40:00,
2017-04-27 03:41:00,74.4,72.6,29.73,South,174,6.0,14.0,94,0.00,,,0.00,VWS V12.08,2017-04-27 08:41:00,
2017-04-27 03:42:00,74.4,72.6,29.73,SE,142,4.0,14.0,94,0.00,,,0.00,VWS V12.08,2017-04-27 08:42:00,
2017-04-27 03:43:00,74.3,72.5,29.73,SSE,150,4.0,14.0,94,0.00,,,0.00,VWS V12.08,2017-04-27 08:43:00,
2017-04-27 03:44:00,74.4,72.6,29.73,SSW,196,8.0,14.0,94,0.00,,,0.00,VWS V12.08,2017-04-27 08:44:00,
2017-04-27 03:45:00,74.4,72.6,29.73,SE,136,5.0,14.0,94,0.00,,,0.00,VWS V12.08,2017-04-27 08:45:00,
2017-04-27 03:46:00,74.4,72.6,29.73,SSE,150,5.0,14.0,94,0.00,,,0.00,VWS V12.08,2017-04-27 08:46:00,
2017-04-27 03:47:00,74.4,72.6,29.73,SE,130,9.0,14.0,94,0.00,,,0.00,VWS V12.08,2017-04-27 08:47:00,
2017-04-27 03:48:00,74.4,72.6,29.73,SSE,155,8.0,14.0,94,0.00,,,0.00,VWS V12.08,2017-04-27 08:48:00,
2017-04-27 03:49:00,74.4,72.6,29.73,SE,146,5.0,14.0,94,0.00,,,0.00,VWS V12.08,2017-04-27 08:49:00,
2017-04-27 03:50:00,74.4,72.6,29.73,SSE,155,9.0,14.0,94,0.00,,,0.00,VWS V12.08,2017-04-27 08:50:00,
2017-04-27 03:51:00,74.4,72.6,29.73,SE,141,7.0,14.0,94,0.00,,,0.00,VWS V12.08,2017-04-27 08:51:00,
2017-04-27 03:52:00,74.4,72.6,29.73,SSE,163,5.0,14.0,94,0.00,,,0.00,VWS V12.08,2017-04-27 08:52:00,
2017-04-27 03:53:00,74.4,72.6,29.73,South,177,2.0,14.0,94,0.00,,,0.00,VWS V12.08,2017-04-27 08:53:00,
2017-04-27 03:54:00,74.5,72.7,29.73,SSE,159,6.0,14.0,94,0.00,,,0.00,VWS V12.08,2017-04-27 08:54:00,
2017-04-27 03:55:00,74.5,72.7,29.73,South,174,9.0,14.0,94,0.00,,,0.00,VWS V12.08,2017-04-27 08:55:00,
2017-04-27 03:56:00,74.4,72.6,29.73,SSE,151,3.0,14.0,94,0.00,,,0.00,VWS V12.08,2017-04-27 08:56:00,
2017-04-27 03:57:00,74.5,72.7,29.74,SSW,195,6.0,14.0,94,0.00,,,0.00,VWS V12.08,2017-04-27 08:57:00,
2017-04-27 03:58:00,74.5,72.7,29.74,SSE,162,6.0,14.0,94,0.00,,,0.00,VWS V12.08,2017-04-27 08:58:00,
2017-04-27 03:59:00,74.5,72.7,29.74,SE,146,9.0,14.0,94,0.00,,,0.00,VWS V12.08,2017-04-27 08:59:00,
2017-04-27 04:00:00,74.5,72.7,29.74,SSW,213,8.0,14.0,94,0.00,,,0.00,VWS V12.08,2017-04-27 09:00:00,
2017-04-27 04:01:00,74.5,72.7,29.74,South,187,8.0,12.0,94,0.00,,,0.00,VWS V12.08,2017-04-27 09:01:00,
2017-04-27 04:02:00,74.5,72.7,29.74,SSE,150,5.0,12.0,94,0.00,,,0.00,VWS V12.08,2017-04-27 09:02:00,
2017-04-27 04:03:00,74.5,72.7,29.74,SSE,155,10.0,12.0,94,0.00,,,0.00,VWS V12.08,2017-04-27 09:03:00,
2017-04-27 04:04:00,74.5,72.7,29.74,South,175,3.0,12.0,94,0.00,,,0.00,VWS V12.08,2017-04-27 09:04:00,
2017-04-27 04:05:00,74.5,72.7,29.74,SSE,156,5.0,12.0,94,0.00,,,0.00,VWS V12.08,2017-04-27 09:05:00,
2017-04-27 04:06:00,74.5,72.7,29.74,South,170,5.0,12.0,94,0.00,,,0.00,VWS V12.08,2017-04-27 09:06:00,
2017-04-27 04:07:00,74.5,72.7,29.74,SSE,159,6.0,12.0,94,0.00,,,0.00,VWS V12.08,2017-04-27 09:07:00,
2017-04-27 04:08:00,74.5,72.7,29.74,SSE,148,4.0,12.0,94,0.00,,,0.00,VWS V12.08,2017-04-27 09:08:00,
2017-04-27 04:09:00,74.6,72.8,29.74,SSE,149,6.0,12.0,94,0.00,,,0.00,VWS V12.08,2017-04-27 09:09:00,
2017-04-27 04:10:00,74.5,72.7,29.74,SSE,160,5.0,12.0,94,0.00,,,0.00,VWS V12.08,2017-04-27 09:10:00,
2017-04-27 04:11:00,74.5,72.7,29.74,SE,145,6.0,12.0,94,0.00,,,0.00,VWS V12.08,2017-04-27 09:11:00,
2017-04-27 04:12:00,74.5,72.7,29.74,South,178,3.0,12.0,94,0.00,,,0.00,VWS V12.08,2017-04-27 09:12:00,
2017-04-27 04:13:00,74.6,72.8,29.74,SSE,165,5.0,12.0,94,0.00,,,0.00,VWS V12.08,2017-04-27 09:13:00,
2017-04-27 04:14:00,74.6,72.8,29.74,SSW,201,4.0,12.0,94,0.00,,,0.00,VWS V12.08,2017-04-27 09:14:00,
2017-04-27 04:15:00,74.6,72.8,29.75,South,170,4.0,12.0,94,0.00,,,0.00,VWS V12.08,2017-04-27 09:15:00,
2017-04-27 04:16:00,74.5,72.7,29.75,South,180,3.0,12.0,94,0.00,,,0.00,VWS V12.08,2017-04-27 09:16:00,
2017-04-27 04:17:00,74.5,72.7,29.75,SSE,163,2.0,12.0,94,0.00,,,0.00,VWS V12.08,2017-04-27 09:17:00,
2017-04-27 04:18:00,74.6,72.8,29.75,SSE,149,8.0,12.0,94,0.00,,,0.00,VWS V12.08,2017-04-27 09:18:00,
2017-04-27 04:19:00,74.6,72.8,29.75,South,169,5.0,12.0,94,0.00,,,0.00,VWS V12.08,2017-04-27 09:19:00,
2017-04-27 04:20:00,74.6,72.8,29.75,South,176,3.0,12.0,94,0.00,,,0.00,VWS V12.08,2017-04-27 09:20:00,
2017-04-27 04:21:00,74.6,72.8,29.75,SE,138,5.0,12.0,94,0.00,,,0.00,VWS V12.08,2017-04-27 09:21:00,
2017-04-27 04:22:00,74.6,72.8,29.75,South,176,4.0,12.0,94,0.00,,,0.00,VWS V12.08,2017-04-27 09:22:00,
2017-04-27 04:23:00,74.6,72.8,29.75,South,169,5.0,12.0,94,0.00,,,0.00,VWS V12.08,2017-04-27 09:23:00,
2017-04-27 04:24:00,74.6,72.8,29.75,South,182,2.0,12.0,94,0.00,,,0.00,VWS V12.08,2017-04-27 09:24:00,
2017-04-27 04:25:00,74.6,72.8,29.75,SSE,148,5.0,12.0,94,0.00,,,0.00,VWS V12.08,2017-04-27 09:25:00,
2017-04-27 04:26:00,74.6,72.8,29.75,SSE,150,3.0,12.0,94,0.00,,,0.00,VWS V12.08,2017-04-27 09:26:00,
2017-04-27 04:27:00,74.6,72.8,29.75,SE,145,3.0,12.0,94,0.00,,,0.00,VWS V12.08,2017-04-27 09:27:00,
2017-04-27 04:28:00,74.6,72.8,29.75,South,180,4.0,12.0,94,0.00,,,0.00,VWS V12.08,2017-04-27 09:28:00,
2017-04-27 04:29:00,74.6,72.8,29.75,South,171,4.0,12.0,94,0.00,,,0.00,VWS V12.08,2017-04-27 09:29:00,
2017-04-27 04:30:00,74.6,72.8,29.75,SSE,161,6.0,12.0,94,0.00,,,0.00,VWS V12.08,2017-04-27 09:30:00,
2017-04-27 04:31:00,74.6,72.8,29.75,SSE,159,4.0,8.0,94,0.00,,,0.00,VWS V12.08,2017-04-27 09:31:00,
2017-04-27 04:32:00,74.6,72.8,29.75,South,173,2.0,8.0,94,0.00,,,0.00,VWS V12.08,2017-04-27 09:32:00,
2017-04-27 04:33:00,74.6,72.8,29.75,SSW,202,3.0,8.0,94,0.00,,,0.00,VWS V12.08,2017-04-27 09:33:00,
2017-04-27 04:34:00,74.6,72.8,29.75,South,178,2.0,8.0,94,0.00,,,0.00,VWS V12.08,2017-04-27 09:34:00,
2017-04-27 04:35:00,74.7,72.9,29.75,SSE,168,5.0,8.0,94,0.00,,,0.00,VWS V12.08,2017-04-27 09:35:00,
2017-04-27 04:36:00,74.7,72.9,29.75,SE,139,5.0,8.0,94,0.00,,,0.00,VWS V12.08,2017-04-27 09:36:00,
2017-04-27 04:37:00,74.7,72.9,29.75,SSE,149,5.0,10.0,94,0.00,,,0.00,VWS V12.08,2017-04-27 09:37:00,
2017-04-27 04:38:00,74.7,72.9,29.76,South,175,6.0,10.0,94,0.00,,,0.00,VWS V12.08,2017-04-27 09:38:00,
2017-04-27 04:39:00,74.7,72.9,29.76,SSE,157,7.0,10.0,94,0.00,,,0.00,VWS V12.08,2017-04-27 09:39:00,
2017-04-27 04:40:00,74.7,72.9,29.76,South,175,7.0,13.0,94,0.00,,,0.00,VWS V12.08,2017-04-27 09:40:00,
2017-04-27 04:41:00,74.7,72.9,29.76,South,173,6.0,13.0,94,0.00,,,0.00,VWS V12.08,2017-04-27 09:41:00,
2017-04-27 04:42:00,74.7,72.9,29.76,South,175,4.0,13.0,94,0.00,,,0.00,VWS V12.08,2017-04-27 09:42:00,
2017-04-27 04:43:00,74.7,72.9,29.76,South,176,3.0,13.0,94,0.00,,,0.00,VWS V12.08,2017-04-27 09:43:00,
2017-04-27 04:44:00,74.6,72.8,29.76,South,186,5.0,13.0,94,0.00,,,0.00,VWS V12.08,2017-04-27 09:44:00,
2017-04-27 04:45:00,74.7,72.9,29.76,South,190,7.0,13.0,94,0.00,,,0.00,VWS V12.08,2017-04-27 09:45:00,
2017-04-27 04:46:00,74.7,72.9,29.76,SSW,195,4.0,13.0,94,0.00,,,0.00,VWS V12.08,2017-04-27 09:46:00,
2017-04-27 04:47:00,74.7,72.9,29.76,South,179,6.0,13.0,94,0.00,,,0.00,VWS V12.08,2017-04-27 09:47:00,
2017-04-27 04:48:00,74.7,72.9,29.76,SE,139,4.0,13.0,94,0.00,,,0.00,VWS V12.08,2017-04-27 09:48:00,
2017-04-27 04:49:00,74.7,72.9,29.76,SSE,166,7.0,13.0,94,0.00,,,0.00,VWS V12.08,2017-04-27 09:49:00,
2017-04-27 04:50:00,74.7,72.9,29.76,SSE,151,3.0,13.0,94,0.00,,,0.00,VWS V12.08,2017-04-27 09:50:00,
2017-04-27 04:51:00,74.7,72.9,29.76,SSE,162,5.0,13.0,94,0.00,,,0.00,VWS V12.08,2017-04-27 09:51:00,
2017-04-27 04:52:00,74.7,72.9,29.76,SSE,159,2.0,13.0,94,0.00,,,0.00,VWS V12.08,2017-04-27 09:52:00,
2017-04-27 04:53:00,74.7,72.9,29.76,South,182,6.0,13.0,94,0.00,,,0.00,VWS V12.08,2017-04-27 09:53:00,
2017-04-27 04:54:00,74.7,72.9,29.76,SSE,155,4.0,13.0,94,0.00,,,0.00,VWS V12.08,2017-04-27 09:54:00,
2017-04-27 04:55:00,74.7,72.9,29.76,South,179,6.0,13.0,94,0.00,,,0.00,VWS V12.08,2017-04-27 09:55:00,
2017-04-27 04:56:00,74.7,72.9,29.76,SSE,153,8.0,13.0,94,0.00,,,0.00,VWS V12.08,2017-04-27 09:56:00,
2017-04-27 04:57:00,74.7,72.9,29.77,South,184,2.0,13.0,94,0.00,,,0.00,VWS V12.08,2017-04-27 09:57:00,
2017-04-27 04:58:00,74.7,72.9,29.77,South,174,9.0,13.0,94,0.00,,,0.00,VWS V12.08,2017-04-27 09:58:00,
2017-04-27 04:59:00,74.7,72.9,29.77,SE,129,7.0,13.0,94,0.00,,,0.00,VWS V12.08,2017-04-27 09:59:00,
2017-04-27 05:00:00,74.7,72.9,29.76,South,178,5.0,13.0,94,0.00,,,0.00,VWS V12.08,2017-04-27 10:00:00,
2017-04-27 05:01:00,74.7,72.9,29.77,SW,219,4.0,11.0,94,0.00,,,0.00,VWS V12.08,2017-04-27 10:01:00,
2017-04-27 05:02:00,74.7,72.9,29.77,SSE,164,6.0,11.0,94,0.00,,,0.00,VWS V12.08,2017-04-27 10:02:00,
2017-04-27 05:03:00,74.7,72.9,29.77,SE,146,6.0,11.0,94,0.00,,,0.00,VWS V12.08,2017-04-27 10:03:00,
2017-04-27 05:04:00,74.7,72.9,29.77,SSE,148,5.0,12.0,94,0.00,,,0.00,VWS V12.08,2017-04-27 10:04:00,
2017-04-27 05:05:00,74.7,72.9,29.76,SSW,192,11.0,12.0,94,0.00,,,0.00,VWS V12.08,2017-04-27 10:05:00,
2017-04-27 05:06:00,74.8,73.0,29.77,South,182,8.0,12.0,94,0.00,,,0.00,VWS V12.08,2017-04-27 10:06:00,
2017-04-27 05:07:00,74.7,72.9,29.77,SSE,168,4.0,12.0,94,0.00,,,0.00,VWS V12.08,2017-04-27 10:07:00,
2017-04-27 05:08:00,74.7,72.9,29.77,SSE,167,11.0,12.0,94,0.00,,,0.00,VWS V12.08,2017-04-27 10:08:00,
2017-04-27 05:09:00,74.7,72.9,29.77,SSE,153,10.0,12.0,94,0.00,,,0.00,VWS V12.08,2017-04-27 10:09:00,
2017-04-27 05:10:00,74.7,72.9,29.77,SSE,154,7.0,12.0,94,0.00,,,0.00,VWS V12.08,2017-04-27 10:10:00,
2017-04-27 05:11:00,74.7,72.9,29.77,SSE,162,5.0,12.0,94,0.00,,,0.00,VWS V12.08,2017-04-27 10:11:00,
2017-04-27 05:12:00,74.7,72.9,29.77,SSE,167,6.0,12.0,94,0.00,,,0.00,VWS V12.08,2017-04-27 10:12:00,
2017-04-27 05:13:00,74.8,73.0,29.77,SSW,196,5.0,12.0,94,0.00,,,0.00,VWS V12.08,2017-04-27 10:13:00,
2017-04-27 05:14:00,74.7,72.9,29.77,SSE,154,4.0,12.0,94,0.00,,,0.00,VWS V12.08,2017-04-27 10:14:00,
2017-04-27 05:15:00,74.7,72.9,29.77,SSE,163,5.0,12.0,94,0.00,,,0.00,VWS V12.08,2017-04-27 10:15:00,
2017-04-27 05:16:00,74.7,72.9,29.77,SSE,160,6.0,12.0,94,0.00,,,0.00,VWS V12.08,2017-04-27 10:16:00,
2017-04-27 05:17:00,74.7,72.9,29.77,SSE,155,8.0,12.0,94,0.00,,,0.00,VWS V12.08,2017-04-27 10:17:00,
2017-04-27 05:18:00,74.7,72.9,29.77,SSE,155,4.0,12.0,94,0.00,,,0.00,VWS V12.08,2017-04-27 10:18:00,
2017-04-27 05:19:00,74.8,73.0,29.77,South,171,6.0,12.0,94,0.00,,,0.00,VWS V12.08,2017-04-27 10:19:00,
2017-04-27 05:20:00,74.7,72.9,29.77,SSE,165,9.0,12.0,94,0.00,,,0.00,VWS V12.08,2017-04-27 10:20:00,
2017-04-27 05:21:00,74.7,72.9,29.77,SSE,157,8.0,12.0,94,0.00,,,0.00,VWS V12.08,2017-04-27 10:21:00,
2017-04-27 05:22:00,74.7,72.9,29.77,South,172,11.0,12.0,94,0.00,,,0.00,VWS V12.08,2017-04-27 10:22:00,
2017-04-27 05:23:00,74.7,72.9,29.77,South,178,9.0,12.0,94,0.00,,,0.00,VWS V12.08,2017-04-27 10:23:00,
2017-04-27 05:24:00,74.7,72.9,29.77,South,182,4.0,12.0,94,0.00,,,0.00,VWS V12.08,2017-04-27 10:24:00,
2017-04-27 05:25:00,74.7,72.9,29.78,SSW,213,7.0,12.0,94,0.00,,,0.00,VWS V12.08,2017-04-27 10:25:00,
2017-04-27 05:26:00,74.7,72.9,29.78,SSW,192,2.0,12.0,94,0.00,,,0.00,VWS V12.08,2017-04-27 10:26:00,
2017-04-27 05:27:00,74.7,72.9,29.78,South,172,8.0,12.0,94,0.00,,,0.00,VWS V12.08,2017-04-27 10:27:00,
2017-04-27 05:28:00,74.7,72.9,29.78,SSE,150,6.0,12.0,94,0.00,,,0.00,VWS V12.08,2017-04-27 10:28:00,
2017-04-27 05:29:00,74.8,73.0,29.78,SSE,157,5.0,12.0,94,0.00,,,0.00,VWS V12.08,2017-04-27 10:29:00,
2017-04-27 05:30:00,74.7,72.9,29.78,SSW,198,2.0,12.0,94,0.00,,,0.00,VWS V12.08,2017-04-27 10:30:00,
2017-04-27 05:31:00,74.7,72.9,29.78,South,173,5.0,6.0,94,0.00,,,0.00,VWS V12.08,2017-04-27 10:31:00,
2017-04-27 05:32:00,74.7,72.9,29.78,South,187,5.0,9.0,94,0.00,,,0.00,VWS V12.08,2017-04-27 10:32:00,
2017-04-27 05:33:00,74.7,72.9,29.78,South,178,4.0,9.0,94,0.00,,,0.00,VWS V12.08,2017-04-27 10:33:00,
2017-04-27 05:34:00,74.7,72.9,29.78,SSW,197,4.0,9.0,94,0.00,,,0.00,VWS V12.08,2017-04-27 10:34:00,
2017-04-27 05:35:00,74.7,72.9,29.78,South,191,5.0,9.0,94,0.00,,,0.00,VWS V12.08,2017-04-27 10:35:00,
2017-04-27 05:36:00,74.7,72.9,29.78,SSE,152,5.0,9.0,94,0.00,,,0.00,VWS V12.08,2017-04-27 10:36:00,
2017-04-27 05:37:00,74.7,72.9,29.78,SSE,157,5.0,9.0,94,0.00,,,0.00,VWS V12.08,2017-04-27 10:37:00,
2017-04-27 05:38:00,74.6,72.8,29.78,SSE,160,5.0,9.0,94,0.00,,,0.00,VWS V12.08,2017-04-27 10:38:00,
2017-04-27 05:39:00,74.6,72.8,29.78,South,171,6.0,9.0,94,0.00,,,0.00,VWS V12.08,2017-04-27 10:39:00,
2017-04-27 05:40:00,74.6,72.8,29.78,SSE,152,5.0,9.0,94,0.00,,,0.00,VWS V12.08,2017-04-27 10:40:00,
2017-04-27 05:41:00,74.6,72.8,29.78,SSE,157,9.0,9.0,94,0.00,,,0.00,VWS V12.08,2017-04-27 10:41:00,
2017-04-27 05:42:00,74.7,72.9,29.78,SSE,153,7.0,11.0,94,0.00,,,0.00,VWS V12.08,2017-04-27 10:42:00,
2017-04-27 05:43:00,74.6,72.8,29.78,SE,134,5.0,11.0,94,0.00,,,0.00,VWS V12.08,2017-04-27 10:43:00,
2017-04-27 05:44:00,74.6,72.8,29.78,SSE,154,8.0,11.0,94,0.00,,,0.00,VWS V12.08,2017-04-27 10:44:00,
2017-04-27 05:45:00,74.6,72.8,29.78,SSE,157,7.0,11.0,94,0.00,,,0.00,VWS V12.08,2017-04-27 10:45:00,
2017-04-27 05:46:00,74.6,72.8,29.78,SSE,167,8.0,11.0,94,0.00,,,0.00,VWS V12.08,2017-04-27 10:46:00,
2017-04-27 05:47:00,74.6,72.8,29.78,SE,144,8.0,11.0,94,0.00,,,0.00,VWS V12.08,2017-04-27 10:47:00,
2017-04-27 05:48:00,74.6,72.8,29.78,SSW,198,6.0,11.0,94,0.00,,,0.00,VWS V12.08,2017-04-27 10:48:00,
2017-04-27 05:49:00,74.7,72.9,29.78,SSE,157,7.0,13.0,94,0.00,,,0.00,VWS V12.08,2017-04-27 10:49:00,
2017-04-27 05:50:00,74.7,72.9,29.78,South,175,6.0,13.0,94,0.00,,,0.00,VWS V12.08,2017-04-27 10:50:00,
2017-04-27 05:51:00,74.7,72.9,29.78,South,182,4.0,13.0,94,0.00,,,0.00,VWS V12.08,2017-04-27 10:51:00,
2017-04-27 05:52:00,74.7,72.9,29.78,SE,134,10.0,13.0,94,0.00,,,0.00,VWS V12.08,2017-04-27 10:52:00,
2017-04-27 05:53:00,74.7,72.9,29.78,South,175,8.0,14.0,94,0.00,,,0.00,VWS V12.08,2017-04-27 10:53:00,
2017-04-27 05:54:00,74.8,73.0,29.78,SE,142,5.0,14.0,94,0.00,,,0.00,VWS V12.08,2017-04-27 10:54:00,
2017-04-27 05:55:00,74.8,73.0,29.78,SSE,166,5.0,14.0,94,0.00,,,0.00,VWS V12.08,2017-04-27 10:55:00,
2017-04-27 05:56:00,74.8,73.0,29.78,SSE,159,6.0,14.0,94,0.00,,,0.00,VWS V12.08,2017-04-27 10:56:00,
2017-04-27 05:57:00,74.7,72.9,29.78,SSE,148,4.0,14.0,94,0.00,,,0.00,VWS V12.08,2017-04-27 10:57:00,
2017-04-27 05:58:00,74.7,72.9,29.78,SSW,205,5.0,14.0,94,0.00,,,0.00,VWS V12.08,2017-04-27 10:58:00,
2017-04-27 05:59:00,74.8,73.0,29.78,SSE,161,5.0,14.0,94,0.00,,,0.00,VWS V12.08,2017-04-27 10:59:00,
2017-04-27 06:00:00,74.8,73.0,29.78,SSE,158,7.0,14.0,94,0.00,,,0.00,VWS V12.08,2017-04-27 11:00:00,
2017-04-27 06:01:00,74.8,73.0,29.78,SSE,162,4.0,7.0,94,0.00,,,0.00,VWS V12.08,2017-04-27 11:01:00,
2017-04-27 06:02:00,74.8,73.0,29.78,South,183,2.0,7.0,94,0.00,,,0.00,VWS V12.08,2017-04-27 11:02:00,
2017-04-27 06:03:00,74.8,73.0,29.78,SE,146,5.0,9.0,94,0.00,,,0.00,VWS V12.08,2017-04-27 11:03:00,
2017-04-27 06:04:00,74.8,73.0,29.78,South,169,5.0,9.0,94,0.00,,,0.00,VWS V12.08,2017-04-27 11:04:00,
2017-04-27 06:05:00,74.8,72.6,29.78,WSW,240,4.0,9.0,93,0.00,,,0.00,VWS V12.08,2017-04-27 11:05:00,
2017-04-27 06:06:00,74.8,72.6,29.78,SSE,150,4.0,9.0,93,0.00,,,0.00,VWS V12.08,2017-04-27 11:06:00,
2017-04-27 06:07:00,74.8,72.6,29.78,SSE,147,5.0,9.0,93,0.00,,,0.00,VWS V12.08,2017-04-27 11:07:00,
2017-04-27 06:08:00,74.8,72.6,29.78,South,182,4.0,9.0,93,0.00,,,0.00,VWS V12.08,2017-04-27 11:08:00,
2017-04-27 06:09:00,74.8,72.6,29.78,SSW,193,5.0,9.0,93,0.00,,,0.00,VWS V12.08,2017-04-27 11:09:00,
2017-04-27 06:10:00,74.8,72.6,29.78,SSE,155,7.0,9.0,93,0.00,,,0.00,VWS V12.08,2017-04-27 11:10:00,
2017-04-27 06:11:00,74.8,72.6,29.78,South,172,10.0,10.0,93,0.00,,,0.00,VWS V12.08,2017-04-27 11:11:00,
2017-04-27 06:12:00,74.8,72.6,29.78,SSE,168,9.0,12.0,93,0.00,,,0.00,VWS V12.08,2017-04-27 11:12:00,
2017-04-27 06:13:00,74.8,72.6,29.78,SSE,147,5.0,12.0,93,0.00,,,0.00,VWS V12.08,2017-04-27 11:13:00,
2017-04-27 06:14:00,74.9,72.7,29.78,South,187,7.0,12.0,93,0.00,,,0.00,VWS V12.08,2017-04-27 11:14:00,
2017-04-27 06:15:00,74.8,72.6,29.78,SSE,159,4.0,12.0,93,0.00,,,0.00,VWS V12.08,2017-04-27 11:15:00,
2017-04-27 06:16:00,74.8,72.6,29.78,SE,135,8.0,12.0,93,0.00,,,0.00,VWS V12.08,2017-04-27 11:16:00,
2017-04-27 06:17:00,74.9,72.7,29.78,SSW,194,5.0,12.0,93,0.00,,,0.00,VWS V12.08,2017-04-27 11:17:00,
2017-04-27 06:18:00,74.9,72.7,29.78,SSE,163,6.0,12.0,93,0.00,,,0.00,VWS V12.08,2017-04-27 11:18:00,
2017-04-27 06:19:00,74.9,72.7,29.78,SSW,205,2.0,12.0,93,0.00,,,0.00,VWS V12.08,2017-04-27 11:19:00,
2017-04-27 06:20:00,74.9,72.7,29.78,SSE,153,5.0,12.0,93,0.00,,,0.00,VWS V12.08,2017-04-27 11:20:00,
2017-04-27 06:21:00,74.8,72.6,29.78,SSW,206,4.0,12.0,93,0.00,,,0.00,VWS V12.08,2017-04-27 11:21:00,
2017-04-27 06:22:00,74.9,72.7,29.78,SSE,152,4.0,12.0,93,0.00,,,0.00,VWS V12.08,2017-04-27 11:22:00,
2017-04-27 06:23:00,74.9,72.7,29.79,SSE,161,4.0,12.0,93,0.00,,,0.00,VWS V12.08,2017-04-27 11:23:00,
2017-04-27 06:24:00,74.9,72.7,29.78,SSE,155,3.0,12.0,93,0.00,,,0.00,VWS V12.08,2017-04-27 11:24:00,
2017-04-27 06:25:00,74.9,72.7,29.78,South,176,3.0,12.0,93,0.00,,,0.00,VWS V12.08,2017-04-27 11:25:00,
2017-04-27 06:26:00,74.9,72.7,29.78,South,171,5.0,12.0,93,0.00,,,0.00,VWS V12.08,2017-04-27 11:26:00,
2017-04-27 06:27:00,74.9,72.7,29.79,SE,134,7.0,12.0,93,0.00,,,0.00,VWS V12.08,2017-04-27 11:27:00,
2017-04-27 06:28:00,74.9,72.7,29.79,South,172,9.0,12.0,93,0.00,,,0.00,VWS V12.08,2017-04-27 11:28:00,
2017-04-27 06:29:00,74.9,72.7,29.79,SE,132,4.0,12.0,93,0.00,,,0.00,VWS V12.08,2017-04-27 11:29:00,
2017-04-27 06:30:00,74.9,72.7,29.79,South,176,3.0,13.0,93,0.00,,,0.00,VWS V12.08,2017-04-27 11:30:00,
2017-04-27 06:31:00,74.9,72.7,29.78,South,169,6.0,8.0,93,0.00,,,0.00,VWS V12.08,2017-04-27 11:31:00,
2017-04-27 06:32:00,74.9,72.7,29.79,SSE,147,4.0,8.0,93,0.00,,,0.00,VWS V12.08,2017-04-27 11:32:00,
2017-04-27 06:33:00,74.9,72.7,29.79,SSE,167,5.0,8.0,93,0.00,,,0.00,VWS V12.08,2017-04-27 11:33:00,
2017-04-27 06:34:00,74.9,72.7,29.79,SSE,148,5.0,12.0,93,0.00,,,0.00,VWS V12.08,2017-04-27 11:34:00,
2017-04-27 06:35:00,74.9,72.7,29.79,SSE,162,2.0,12.0,93,0.00,,,0.00,VWS V12.08,2017-04-27 11:35:00,
2017-04-27 06:36:00,75.0,72.8,29.79,SSW,200,6.0,12.0,93,0.00,,,0.00,VWS V12.08,2017-04-27 11:36:00,
2017-04-27 06:37:00,75.0,72.8,29.79,SSE,147,4.0,12.0,93,0.00,,,0.00,VWS V12.08,2017-04-27 11:37:00,
2017-04-27 06:38:00,74.9,72.7,29.79,SE,129,4.0,12.0,93,0.00,,,0.00,VWS V12.08,2017-04-27 11:38:00,
2017-04-27 06:39:00,74.9,72.7,29.79,SE,133,4.0,12.0,93,0.00,,,0.00,VWS V12.08,2017-04-27 11:39:00,
2017-04-27 06:40:00,75.0,72.8,29.79,SSE,162,4.0,12.0,93,0.00,,,0.00,VWS V12.08,2017-04-27 11:40:00,
2017-04-27 06:41:00,75.0,72.8,29.79,South,169,5.0,12.0,93,0.00,,,0.00,VWS V12.08,2017-04-27 11:41:00,
2017-04-27 06:42:00,75.0,72.8,29.79,SSE,163,6.0,12.0,93,0.00,,,0.00,VWS V12.08,2017-04-27 11:42:00,
2017-04-27 06:43:00,75.0,72.8,29.79,South,171,6.0,12.0,93,0.00,,,0.00,VWS V12.08,2017-04-27 11:43:00,
2017-04-27 06:44:00,75.0,72.8,29.79,South,173,6.0,12.0,93,0.00,,,0.00,VWS V12.08,2017-04-27 11:44:00,